This is the latest recevied weather packets stored in our database for station/object W2JGA. If no packets are shown the sender has not sent any weather packets the latest 10 day(s).
| Time | Temp. | Humidity | Pressure | Rain* | Wind** | Luminosity | Snow |
|---|---|---|---|---|---|---|---|
| 1777759734 | 31.11° C | 24% | 1014.7 hPa | 0 mm | - | 648 W/m² | - |
| 1777759430 | 30.56° C | 24% | 1014.7 hPa | 0 mm | - | 645 W/m² | - |
| 1777759127 | 31.11° C | 23% | 1014.7 hPa | 0 mm | - | 655 W/m² | - |
| 1777758824 | 31.67° C | 22% | 1014.7 hPa | 0 mm | - | 637 W/m² | - |
| 1777758521 | 31.11° C | 23% | 1015 hPa | 0 mm | - | 651 W/m² | - |
| 1777758217 | 31.67° C | 23% | 1015 hPa | 0 mm | - | 524 W/m² | - |
| 1777757915 | 31.67° C | 23% | 1015 hPa | 0 mm | - | 703 W/m² | - |
| 1777757612 | 31.11° C | 22% | 1015.4 hPa | 0 mm | - | 665 W/m² | - |
| 1777757311 | 30.56° C | 22% | 1015.4 hPa | 0 mm | - | 716 W/m² | - |
| 1777757009 | 31.11° C | 22% | 1015.4 hPa | 0 mm | - | 726 W/m² | - |
| 1777756706 | 31.11° C | 22% | 1015.4 hPa | 0 mm | - | 700 W/m² | - |
| 1777756401 | 30.56° C | 22% | 1015.4 hPa | 0 mm | - | 690 W/m² | - |
| 1777756099 | 30.56° C | 22% | 1015.4 hPa | 0 mm | - | 734 W/m² | - |
| 1777755796 | 30.56° C | 22% | 1015.4 hPa | 0 mm | - | 724 W/m² | - |
| 1777755493 | 31.11° C | 22% | 1015.8 hPa | 0 mm | - | 705 W/m² | - |
| 1777755189 | 31.67° C | 21% | 1015.8 hPa | 0 mm | - | 718 W/m² | - |
| 1777754886 | 31.11° C | 21% | 1015.8 hPa | 0 mm | - | 770 W/m² | - |
| 1777754583 | 30.56° C | 22% | 1016.1 hPa | 0 mm | - | 761 W/m² | - |
| 1777754281 | 31.11° C | 21% | 1016.1 hPa | 0 mm | - | 713 W/m² | - |
| 1777753978 | 30.56° C | 20% | 1016.1 hPa | 0 mm | - | 737 W/m² | - |
| 1777753678 | 30° C | 18% | 1016.1 hPa | 0 mm | - | 602 W/m² | - |
| 1777753376 | 30.56° C | 20% | 1016.1 hPa | 0 mm | - | 691 W/m² | - |
| 1777753074 | 31.11° C | 18% | 1016.5 hPa | 0 mm | - | 744 W/m² | - |
| 1777752775 | 30° C | 20% | 1016.1 hPa | 0 mm | - | 727 W/m² | - |
| 1777752471 | 30° C | 20% | 1016.1 hPa | 0 mm | - | 761 W/m² | - |
* Rain latest hour (hover to see other rain measurements)
** Current wind speed in m/s (hover to see current wind gust speed)